Terug naar catalogus

CZ-2C R/B

ActiefLEO
NORAD 42948·ROCKET BODY·🇨🇳 China

Gelanceerd Sep 29, 2017 vanaf Xichang Satellite Launch Center

Loading…

Volgende Passages (komende 24 uur)

TLE

VersSource: Space-Track

Epoch: Sep 14, 2026, 10:55 UTC

1 42948U 17058D   26257.45509317  .00000886  00000-0  97861-4 0  9991
2 42948  34.9254 178.3091 0059333 312.2302  47.3375 14.86544060485522

Volg CZ-2C R/B in realtime met AllMySat

Download on the App Store